[[{"header":{"parameterUnit":"m.s-1","parameterCategory":1,"la1":30.2991,"la2":30.254,"lo1":-89.0895,"lo2":-89.0444,"dy":0.0017,"dx":0.0017,"nx":28,"ny":28,"refTime":"2024-05-13T03:00:00:Z","depth":0,"parameterNumber":2,"parameterNumberName":"U-component_of_WINDS"},"data":[0,0,0,0,0,0,0,0,0,0,0,0,0,0,0,0,0,0,0,0,0,0,0,0,0,0,0,0,0,0,0,0,0,0,0,0,0,0,0,0,0,0,0,0,0,0,0,0,0,0,0,0,0,0,0,0,0,0,-6.9401,-6.9404,0,-6.9608,-6.961,-6.9613,-6.9655,-6.9654,-6.9652,-6.9651,-6.9854,-6.986,-6.9867,0,0,0,0,0,0,0,0,0,0,0,0,0,-6.9035,-6.9041,-6.9401,-6.9404,-6.9406,-6.9608,-6.9611,-6.9613,-6.9656,-6.9654,-6.9652,-6.965,-6.9851,-6.9859,-6.9868,0,0,0,0,0,0,0,0,0,0,0,0,0,-6.9213,-6.9044,-6.9401,-6.9452,-6.9459,-6.9607,-6.9611,-6.9614,-6.9656,-6.9654,-6.9651,-6.9649,-6.9849,-6.9859,-6.9869,-6.9978,0,0,-6.99,-6.9905,0,0,0,0,0,0,0,0,-6.9203,-6.9226,-6.9442,-6.9449,-6.9456,-6.9604,-6.9556,-6.9736,-6.9657,-6.9581,-6.9651,-6.9648,-6.9772,-6.9788,-6.9832,-6.9988,-6.9996,-6.9901,-6.9907,-6.9912,-6.9915,0,0,0,0,0,0,0,-6.919,-6.9217,-6.9483,-6.9445,-6.9454,-6.9462,-6.9485,-6.959,-6.9686,-6.9587,-6.9591,-6.9615,-6.9775,-6.9822,-6.9837,-6.9999,-6.9901,-6.991,-6.9916,-6.992,-7.0254,-7.0256,0,0,0,0,0,0,-6.917,-6.9207,-6.9476,-6.9489,-6.9322,-6.947,-6.9496,-6.9559,-6.9685,-6.9703,-6.9617,-6.9616,-6.9805,-6.9825,-6.9844,-6.9979,-6.9912,-6.9921,-6.9927,-7.0251,-7.0255,-7.0257,0,0,0,0,0,0,-6.9162,-6.9194,-6.9468,-6.9349,-6.9385,-6.9479,-6.9549,-6.9564,-6.9611,-6.9708,-6.9724,-6.9647,-6.9804,-6.983,-6.9945,-6.9986,-6.9926,-6.9935,-7.0248,-7.0252,-7.0256,-7.025,0,0,0,0,0,0,-6.9151,-6.9191,-6.9235,-6.935,-6.9391,-6.9567,-6.9552,-6.957,-6.9629,-6.963,-6.9741,-6.9757,-6.9804,-6.9929,-6.9955,-6.9999,-6.9943,-7.0245,-7.025,-7.0255,-7.0247,-7.0253,-7.0259,0,0,0,0,0,-6.9138,-6.9223,-6.9237,-6.9269,-6.9449,-6.957,-6.9593,-6.9648,-6.9632,-6.9676,-6.9739,-6.9753,-6.9979,-6.9941,-6.997,-7.0018,-7.0242,-7.0248,-7.0254,-7.0244,-7.0252,-7.0259,0,0,0,0,0,0,-6.9107,-6.9239,-6.9256,-6.9381,-6.9464,-6.9577,-6.9634,-6.9655,-6.9742,-6.9739,-6.9802,-6.9827,-6.9938,-6.999,-6.9945,-7.013,-7.0109,-7.0121,-7.0091,-7.01,-7.0106,-7.0089,-6.9952,0,0,0,0,0,-6.9116,-6.9206,-6.9315,-6.9415,-6.9457,-6.9538,-6.9593,-6.9629,-6.9716,-6.9751,-6.9822,-6.9903,-6.9993,-7.005,-7.0137,-7.0256,-7.0279,-7.0304,-7.031,-7.0314,-7.0322,-7.0387,-7.0398,-7.0278,-7.0277,-7.0277,0,0,-6.9133,-6.9216,-6.9268,-6.9411,-6.948,-6.9569,-6.9567,-6.9661,-6.9727,-6.9764,-6.9877,-6.9933,-7.0028,-7.0145,-7.02,-7.0191,-7.0362,-7.0322,-7.0325,-7.0331,-7.0394,-7.0406,-7.0416,-7.0282,-7.0281,-7.028,0,0,-6.9208,-6.9282,-6.9373,-6.9443,-6.9548,-6.9602,-6.9623,-6.9734,-6.9772,-6.9888,-6.9917,-6.9995,-7.0148,-7.0214,-7.0268,-7.0371,-7.0386,-7.0398,-7.0427,-7.049,-7.0499,-7.0508,-7.0541,-7.0553,-7.0407,-7.0407,-7.0407,0,-6.9215,-6.9353,-6.9416,-6.951,-6.957,-6.9612,-6.9702,-6.9766,-6.9893,-6.9932,-6.9923,-7.0116,-7.0183,-7.0315,-7.034,-7.0384,-7.0408,-7.0383,-7.0493,-7.0503,-7.0512,-7.0544,-7.0557,-7.0407,-7.0407,-7.0407,-7.0407,0,-6.9355,-6.945,-6.951,-6.9635,-6.9703,-6.9794,-6.9868,-6.9929,-6.996,-7.0014,-7.013,-7.0213,-7.0317,-7.0352,-7.0382,-7.0488,-7.048,-7.0481,-7.0461,-7.0522,-7.0554,-7.0567,-7.0408,-7.0408,-7.0407,-7.0407,0,0,-6.9414,-6.9574,-6.9594,-6.9651,-6.9771,-6.9844,-6.9937,-7.0042,-7.0091,-7.0178,-7.0255,-7.0385,-7.0387,-7.0448,-7.0486,-7.0541,-7.0614,-7.0536,-7.0539,-7.0544,-7.0733,-7.0728,-7.0742,-7.0627,-7.063,-7.0632,-7.0724,0,-6.9501,-6.9671,-6.973,-6.9869,-6.9956,-6.9997,-7.0078,-7.0158,-7.0212,-7.0291,-7.035,-7.044,-7.0438,-7.0474,-7.0531,-7.0593,-7.0652,-7.0588,-7.0695,-7.0698,-7.0666,-7.0759,-7.0755,-7.0838,-7.0737,-7.0739,-7.0741,0,-6.9626,-6.9717,-6.9864,-6.9973,-7.0012,-7.0083,-7.0184,-7.0261,-7.0353,-7.0388,-7.0457,-7.0491,-7.0587,-7.0564,-7.0695,-7.065,-7.0698,-7.0735,-7.074,-7.0749,-7.072,-7.0767,-7.0866,-7.0876,-7.0761,-7.076,-7.0758,0,-6.965,-6.9809,-6.9918,-6.9966,-7.0096,-7.0145,-7.0201,-7.0291,-7.035,-7.0438,-7.0476,-7.0573,-7.0625,-7.0698,-7.0757,-7.0735,-7.0881,-7.0864,-7.091,-7.0908,-7.0935,-7.0932,-7.1039,-7.0972,-7.0972,-7.0972,-7.0972,0,-6.9739,-6.9827,-6.9931,-6.9997,-7.0096,-7.0163,-7.0259,-7.0317,-7.0397,-7.0473,-7.0515,-7.0585,-7.0661,-7.074,-7.0787,-7.0886,-7.091,-7.0939,-7.0949,-7.0933,-7.0929,-7.0962,-7.0957,-7.0975,-7.0975,-7.0974,-7.0973,0,-6.9781,-6.9855,-6.9975,-7.009,-7.0121,-7.0188,-7.0285,-7.035,-7.0406,-7.0502,-7.0529,-7.0616,-7.0712,-7.0779,-7.0902,-7.0933,-7.1039,-7.1051,-7.1009,-7.1013,-7.1054,-7.1048,-7.1184,-7.1204,-7.1126,-7.1127,-7.1127,0,-6.9832,-6.9901,-7.0023,-7.0079,-7.0136,-7.0225,-7.0286,-7.0355,-7.0417,-7.0527,-7.0578,-7.0677,-7.076,-7.091,-7.0983,-7.1076,-7.1088,-7.113,-7.1102,-7.1083,-7.1085,-7.1079,-7.1085,-7.1132,-7.1133,-7.1133,-7.1133,0,-6.9912,-6.9946,-7.0034,-7.0135,-7.0208,-7.0291,-7.0373,-7.0416,-7.0499,-7.0566,-7.0666,-7.073,-7.0856,-7.0953,-7.1054,-7.1109,-7.1134,-7.1142,-7.1157,-7.1139,-7.1111,-7.1124,-7.1016,-7.1138,-7.1137,-7.1137,-7.1137,-7.1137,-6.9958,-7.0021,-7.0117,-7.0214,-7.0284,-7.036,-7.0427,-7.0493,-7.0578,-7.0688,-7.0723,-7.0826,-7.0915,-7.1054,-7.111,-7.119,-7.1187,-7.1209,-7.1214,-7.1218,-7.1216,-7.1101,-7.1209,-7.1209,-7.1209,-7.1209,-7.1209,0,-7.0038,-7.0103,-7.0192,-7.0307,-7.0383,-7.0404,-7.0497,-7.0557,-7.0648,-7.0731,-7.0813,-7.0926,-7.1021,-7.1102,-7.12,-7.1247,-7.1261,-7.127,-7.1265,-7.1277,-7.1214,-7.119,-7.1257,-7.1257,-7.1257,-7.1257,-7.1257,-7.1257,-7.0089,-7.0195,-7.024,-7.0381,-7.0445,-7.0548,-7.0598,-7.0668,-7.0734,-7.086,-7.094,-7.0994,-7.1076,-7.1179,-7.1266,-7.1287,-7.1319,-7.1325,-7.1349,-7.1287,-7.1282,-7.1276,-7.1253,-7.1333,-7.1333,-7.1404,-7.1405,-7.1405]},{"header":{"parameterUnit":"m.s-1","parameterCategory":1,"la1":30.2991,"la2":30.254,"lo1":-89.0895,"lo2":-89.0444,"dy":0.0017,"dx":0.0017,"nx":28,"ny":28,"refTime":"2024-05-13T03:00:00:Z","depth":0,"parameterNumber":3,"parameterNumberName":"V-component_of_WINDS"},"data":[0,0,0,0,0,0,0,0,0,0,0,0,0,0,0,0,0,0,0,0,0,0,0,0,0,0,0,0,0,0,0,0,0,0,0,0,0,0,0,0,0,0,0,0,0,0,0,0,0,0,0,0,0,0,0,0,0,0,6.7415,6.7414,0,6.7361,6.736,6.7359,6.7203,6.72,6.7197,6.7193,6.7142,6.7143,6.7145,0,0,0,0,0,0,0,0,0,0,0,0,0,6.7389,6.739,6.7415,6.7414,6.7413,6.7361,6.736,6.7359,6.7204,6.72,6.7196,6.7192,6.7141,6.7143,6.7145,0,0,0,0,0,0,0,0,0,0,0,0,0,6.7374,6.7391,6.7415,6.733,6.7321,6.7361,6.736,6.7359,6.7205,6.72,6.7195,6.719,6.714,6.7143,6.7146,6.7264,0,0,6.7154,6.7155,0,0,0,0,0,0,0,0,6.7375,6.7375,6.7343,6.7336,6.7326,6.7283,6.7332,6.7327,6.7206,6.7249,6.7193,6.7187,6.7193,6.7191,6.7192,6.7262,6.726,6.7154,6.7156,6.7157,6.7158,0,0,0,0,0,0,0,6.7376,6.7377,6.7393,6.7343,6.7333,6.7296,6.7288,6.733,6.7251,6.7245,6.7234,6.7229,6.7188,6.719,6.719,6.7259,6.7154,6.7156,6.7158,6.7159,6.7424,6.743,0,0,0,0,0,0,6.7389,6.7379,6.7395,6.7392,6.7339,6.73,6.7292,6.7303,6.725,6.7237,6.7234,6.7222,6.7188,6.7187,6.7188,6.7323,6.7157,6.7159,6.7161,6.7419,6.7426,6.7432,0,0,0,0,0,0,6.7389,6.7392,6.7397,6.7382,6.738,6.7306,6.732,6.7304,6.7306,6.7241,6.7226,6.725,6.7184,6.7184,6.7246,6.7319,6.7161,6.7163,6.7413,6.7421,6.7429,6.7595,0,0,0,0,0,0,6.7389,6.7393,6.7436,6.7384,6.7381,6.7456,6.7324,6.7307,6.7311,6.7295,6.7253,6.7241,6.718,6.7243,6.7249,6.732,6.7165,6.7406,6.7416,6.7426,6.7582,6.7607,6.7629,0,0,0,0,0,6.7389,6.7485,6.7439,6.7442,6.7433,6.746,6.7459,6.7385,6.7317,6.736,6.7319,6.7242,6.7311,6.7251,6.7256,6.7329,6.7401,6.7413,6.7425,6.7572,6.7602,6.7628,0,0,0,0,0,0,6.7548,6.7477,6.7424,6.7507,6.7491,6.7434,6.7486,6.742,6.7424,6.7409,6.732,6.7312,6.7387,6.7364,6.7299,6.7442,6.7343,6.7357,6.7453,6.7481,6.7504,6.7507,6.7167,0,0,0,0,0,6.7593,6.7619,6.7556,6.7635,6.763,6.756,6.7569,6.7514,6.7494,6.7487,6.745,6.7435,6.7453,6.7466,6.7479,6.758,6.7568,6.7632,6.7656,6.7675,6.7687,6.7739,6.7767,6.7472,6.7472,6.7471,0,0,6.7685,6.7649,6.7672,6.7666,6.7647,6.7678,6.7555,6.7592,6.7615,6.7493,6.7549,6.7522,6.7499,6.7582,6.7616,6.7565,6.7767,6.7691,6.7707,6.7708,6.7755,6.7783,6.7808,6.748,6.7478,6.7477,0,0,6.7868,6.7845,6.7907,6.7891,6.7864,6.7818,6.7834,6.7787,6.7764,6.7819,6.7729,6.7755,6.7788,6.7776,6.7774,6.7957,6.7886,6.7964,6.8085,6.8137,6.816,6.818,6.8245,6.8269,6.7977,6.7978,6.7978,0,6.7986,6.8027,6.7949,6.7992,6.7993,6.7884,6.7949,6.7937,6.7917,6.7921,6.7864,6.7904,6.7881,6.7959,6.8004,6.8006,6.8022,6.7967,6.8163,6.8182,6.82,6.8261,6.8285,6.7987,6.7986,6.7985,6.7984,0,6.8174,6.8205,6.826,6.8241,6.8249,6.8303,6.8234,6.8251,6.8198,6.8158,6.8217,6.8186,6.8191,6.8206,6.8154,6.8278,6.8247,6.8179,6.8077,6.8239,6.8294,6.8317,6.8001,6.7997,6.7994,6.7992,0,0,6.8452,6.8392,6.8413,6.8404,6.8368,6.8391,6.8442,6.8446,6.8463,6.8454,6.8494,6.8526,6.8462,6.8461,6.8407,6.8453,6.86,6.8378,6.8376,6.8419,6.8734,6.8784,6.8812,6.8554,6.8558,6.8562,6.8735,0,6.8625,6.8705,6.8637,6.8731,6.8759,6.8658,6.8702,6.8686,6.8652,6.8671,6.8634,6.8657,6.8572,6.857,6.8612,6.8573,6.8661,6.856,6.8591,6.8593,6.8597,6.8841,6.8894,6.906,6.8757,6.876,6.8763,0,6.8835,6.8835,6.8932,6.8891,6.89,6.894,6.894,6.896,6.8941,6.8912,6.8912,6.8847,6.8895,6.8799,6.8865,6.8797,6.8807,6.8791,6.8795,6.8793,6.8686,6.8845,6.9111,6.9135,6.8797,6.8794,6.8791,0,6.9027,6.9052,6.9112,6.9108,6.9062,6.9093,6.9076,6.9051,6.9059,6.906,6.9064,6.9072,6.9075,6.9083,6.9022,6.8957,6.9096,6.8994,6.9074,6.9076,6.9106,6.9104,6.9375,6.9116,6.9115,6.9115,6.9114,0,6.9225,6.9288,6.9198,6.9235,6.9304,6.9227,6.9297,6.9269,6.9249,6.9281,6.9196,6.9227,6.9146,6.917,6.9123,6.9185,6.9188,6.9167,6.9153,6.9173,6.9176,6.9176,6.9162,6.9121,6.912,6.9119,6.9118,0,6.945,6.9392,6.9452,6.9404,6.9394,6.9447,6.9406,6.944,6.9401,6.9442,6.9447,6.9387,6.941,6.9351,6.9367,6.9335,6.9424,6.9393,6.943,6.942,6.9503,6.9495,6.9782,6.9816,6.9537,6.9539,6.9542,0,6.9579,6.9625,6.9583,6.9597,6.9584,6.9609,6.9617,6.9544,6.9556,6.9539,6.9575,6.9592,6.9601,6.9645,6.9603,6.9615,6.9582,6.9682,6.9583,6.9602,6.9582,6.958,6.9584,6.9702,6.9705,6.9708,6.971,0,6.9814,6.9784,6.9797,6.9802,6.9813,6.9814,6.9808,6.9826,6.9748,6.9767,6.9789,6.9797,6.9813,6.9831,6.9834,6.9817,6.9752,6.9742,6.9761,6.9781,6.98,6.979,6.9484,6.9735,6.9733,6.9731,6.9729,6.9728,6.9993,7.003,7.0006,7.0025,7.0014,7.0011,7.004,7.0006,7.0023,7.003,6.9987,7.002,7.0002,6.9999,6.999,7.0015,6.997,6.9998,7.0004,7.0012,7.0025,6.9798,7.0016,7.0015,7.0014,7.0014,7.0013,0,7.0223,7.0204,7.0222,7.0217,7.0232,7.0169,7.0161,7.0178,7.0208,7.0196,7.0207,7.0235,7.0253,7.0214,7.0226,7.0254,7.0225,7.026,7.0256,7.0253,7.0065,7.0047,7.0284,7.0284,7.0284,7.0283,7.0283,7.0283,7.0344,7.0403,7.0371,7.0424,7.0404,7.0434,7.0435,7.0433,7.0423,7.0458,7.0472,7.0446,7.0424,7.0434,7.0449,7.0437,7.0445,7.0491,7.0469,7.0293,7.0267,7.0241,7.0224,7.0494,7.0494,7.0654,7.0656,7.0657]}]]